KLM1583 KMCO-EHAM

Flight info

Callsign KLM1583
Flight time N/A
Altitude 30000
Route JEEMY4 PAINN SHRKS BERTT GURGE RAYVO Q87 NOWAE FAK BOOYA Q34 RBV Q22 LLUND BIZEX Q133 CAM BEEHS JIGZY HULTN N611A SAXAN 5250N 5340N 5330N 5320N MALOT GISTI ENJEX ADHAV AXNEF ZIPWE OZZIL SAWPE L179 ICTAM M197 REDFA
Aircraft MD11/H-SDE1E2E3FGHIJ2J3J4J5M1RWXY/LB1D1

Departure

Time 2026-04-25 13:40
Airport Orlando International Airport (KMCO)

Arrival

Time N/A
Airport Amsterdam Airport Schiphol (EHAM)
Time Latitude Longitude Altitude Speed Heading
2026-04-25 12:51 28.42906 -81.30057 92 ft 0 kts 183°
2026-04-25 13:16 28.42917 -81.30056 92 ft 2 kts 183°
2026-04-25 13:16 28.42932 -81.30055 92 ft 2 kts 183°
2026-04-25 13:16 28.42947 -81.30054 92 ft 2 kts 183°
2026-04-25 13:17 28.42962 -81.30054 92 ft 2 kts 183°
2026-04-25 13:17 28.42968 -81.30054 92 ft 0 kts 183°
2026-04-25 13:20 28.42965 -81.30051 92 ft 0 kts 148°
2026-04-25 13:20 28.42964 -81.30048 92 ft 1 kts 109°
2026-04-25 13:20 28.42958 -81.30023 92 ft 2 kts 103°
2026-04-25 13:20 28.42956 -81.30011 93 ft 3 kts 103°
2026-04-25 13:21 28.42948 -81.29979 93 ft 5 kts 104°
2026-04-25 13:21 28.42937 -81.29938 93 ft 5 kts 113°
2026-04-25 13:21 28.42928 -81.29909 94 ft 0 kts 107°
2026-04-25 13:22 28.42927 -81.29904 94 ft 3 kts 108°
2026-04-25 13:22 28.42910 -81.29839 94 ft 10 kts 118°
2026-04-25 13:22 28.42881 -81.29806 94 ft 0 kts 137°
2026-04-25 13:23 28.42867 -81.29750 94 ft 5 kts 109°
2026-04-25 13:23 28.42775 -81.29700 93 ft 24 kts 178°
2026-04-25 13:23 28.42602 -81.29697 91 ft 24 kts 182°
2026-04-25 13:23 28.42438 -81.29699 91 ft 22 kts 180°
2026-04-25 13:24 28.42309 -81.29712 92 ft 15 kts 221°
2026-04-25 13:24 28.42281 -81.29820 94 ft 12 kts 267°
2026-04-25 13:24 28.42278 -81.29909 94 ft 10 kts 269°
2026-04-25 13:24 28.42278 -81.29987 94 ft 10 kts 270°
2026-04-25 13:25 28.42277 -81.30051 94 ft 6 kts 269°
2026-04-25 13:25 28.42276 -81.30124 94 ft 11 kts 269°
2026-04-25 13:25 28.42275 -81.30245 94 ft 18 kts 270°
2026-04-25 13:25 28.42271 -81.30384 92 ft 16 kts 267°
2026-04-25 13:26 28.42264 -81.30510 91 ft 15 kts 265°
2026-04-25 13:26 28.42250 -81.30706 89 ft 24 kts 266°
2026-04-25 13:26 28.42241 -81.30824 88 ft 8 kts 264°
2026-04-25 13:26 28.42236 -81.30896 88 ft 10 kts 265°
2026-04-25 13:27 28.42233 -81.30963 88 ft 7 kts 270°
2026-04-25 13:27 28.42234 -81.30998 88 ft 4 kts 272°
2026-04-25 13:27 28.42238 -81.31054 88 ft 10 kts 278°
2026-04-25 13:27 28.42251 -81.31143 88 ft 11 kts 279°
2026-04-25 13:28 28.42257 -81.31187 88 ft 0 kts 279°
2026-04-25 13:28 28.42268 -81.31277 88 ft 10 kts 278°
2026-04-25 13:28 28.42266 -81.31377 89 ft 16 kts 267°
2026-04-25 13:29 28.42264 -81.31531 91 ft 21 kts 270°
2026-04-25 13:29 28.42264 -81.31710 91 ft 22 kts 269°
2026-04-25 13:29 28.42263 -81.31805 91 ft 2 kts 293°
2026-04-25 13:30 28.42579 -81.31842 92 ft 29 kts
2026-04-25 13:30 28.42778 -81.31840 91 ft 28 kts 359°
2026-04-25 13:30 28.42966 -81.31840 91 ft 25 kts 360°
2026-04-25 13:31 28.43304 -81.31844 91 ft 23 kts 359°
2026-04-25 13:31 28.43461 -81.31846 94 ft 21 kts
2026-04-25 13:31 28.43606 -81.31846 94 ft 20 kts
2026-04-25 13:31 28.43743 -81.31846 94 ft 19 kts
2026-04-25 13:32 28.43877 -81.31847 94 ft 18 kts 358°
2026-04-25 13:32 28.44110 -81.31899 94 ft 15 kts 357°
2026-04-25 13:32 28.44213 -81.31899 95 ft 13 kts 359°
2026-04-25 13:33 28.44308 -81.31902 95 ft 13 kts 358°
2026-04-25 13:33 28.44396 -81.31905 96 ft 12 kts 359°
2026-04-25 13:33 28.44487 -81.31906 95 ft 13 kts
2026-04-25 13:33 28.44550 -81.31906 95 ft 13 kts
2026-04-25 13:34 28.44605 -81.31906 95 ft 0 kts
2026-04-25 13:36 28.44621 -81.31906 95 ft 6 kts
2026-04-25 13:37 28.44691 -81.31906 94 ft 13 kts
2026-04-25 13:37 28.44783 -81.31919 94 ft 12 kts 330°
2026-04-25 13:37 28.44822 -81.31991 94 ft 10 kts 279°
2026-04-25 13:37 28.44824 -81.32055 94 ft 3 kts 269°
2026-04-25 13:38 28.44824 -81.32056 94 ft 0 kts 269°
2026-04-25 13:38 28.44824 -81.32082 94 ft 5 kts 269°
2026-04-25 13:38 28.44823 -81.32139 94 ft 8 kts 270°
2026-04-25 13:38 28.44802 -81.32200 94 ft 8 kts 226°
2026-04-25 13:39 28.44758 -81.32224 94 ft 5 kts 190°
2026-04-25 13:39 28.44589 -81.32227 94 ft 53 kts 180°
2026-04-25 13:39 28.44009 -81.32221 95 ft 110 kts 179°
2026-04-25 13:39 28.43075 -81.32211 96 ft 157 kts 180°
2026-04-25 13:40 28.41848 -81.32194 128 ft 187 kts 180°
2026-04-25 13:40 28.40551 -81.32175 468 ft 185 kts 180°
2026-04-25 13:40 28.39236 -81.32265 699 ft 190 kts 196°
2026-04-25 13:40 28.38051 -81.32865 1095 ft 187 kts 211°
2026-04-25 13:41 28.36942 -81.33653 1436 ft 189 kts 213°
2026-04-25 13:41 28.35843 -81.34483 1751 ft 190 kts 214°
2026-04-25 13:41 28.34760 -81.35384 1926 ft 192 kts 216°
2026-04-25 13:41 28.33685 -81.36317 2087 ft 195 kts 220°
2026-04-25 13:42 28.32875 -81.37517 2277 ft 194 kts 246°
2026-04-25 13:42 28.32434 -81.38973 2459 ft 196 kts 256°
2026-04-25 13:42 28.32163 -81.40502 2640 ft 198 kts 261°
2026-04-25 13:42 28.31975 -81.42058 2842 ft 199 kts 263°
2026-04-25 13:43 28.31828 -81.43627 3063 ft 200 kts 264°
2026-04-25 13:43 28.31707 -81.45218 3238 ft 204 kts 265°
2026-04-25 13:43 28.31696 -81.46852 3380 ft 211 kts 274°
2026-04-25 13:43 28.32128 -81.48460 3501 ft 215 kts 302°
2026-04-25 13:44 28.33051 -81.49816 3663 ft 222 kts 314°
2026-04-25 13:44 28.34190 -81.51040 3772 ft 233 kts 319°
2026-04-25 13:44 28.35496 -81.52248 3890 ft 244 kts 322°
2026-04-25 13:44 28.36873 -81.53429 3993 ft 258 kts 323°
2026-04-25 13:45 28.38343 -81.54723 4070 ft 272 kts 313°
2026-04-25 13:45 28.39275 -81.56548 4418 ft 270 kts 285°
2026-04-25 13:45 28.39578 -81.58664 4779 ft 274 kts 272°
2026-04-25 13:45 28.39566 -81.60822 5185 ft 276 kts 267°
2026-04-25 13:46 28.39406 -81.63000 5601 ft 276 kts 264°
2026-04-25 13:46 28.39174 -81.65170 6028 ft 277 kts 263°
2026-04-25 13:46 28.38922 -81.67327 6402 ft 278 kts 265°
2026-04-25 13:46 28.39167 -81.69493 6716 ft 278 kts 293°
2026-04-25 13:47 28.39944 -81.71529 7010 ft 291 kts 300°
2026-04-25 13:47 28.41156 -81.73450 7256 ft 306 kts 313°
2026-04-25 13:47 28.42713 -81.75171 7698 ft 316 kts 322°
2026-04-25 13:47 28.44628 -81.76383 8319 ft 318 kts 339°
2026-04-25 13:48 28.46742 -81.77093 8910 ft 324 kts 347°
2026-04-25 13:48 28.48968 -81.77559 9611 ft 324 kts 351°
2026-04-25 13:48 28.51161 -81.77877 10670 ft 312 kts 352°
2026-04-25 13:48 28.53283 -81.78117 11372 ft 310 kts 353°
2026-04-25 13:49 28.55447 -81.78266 11955 ft 312 kts
2026-04-25 13:49 28.57543 -81.77626 12530 ft 313 kts 27°
2026-04-25 13:49 28.59252 -81.76116 12994 ft 321 kts 46°
2026-04-25 13:49 28.60660 -81.74096 13448 ft 326 kts 49°
2026-04-25 13:50 28.62108 -81.72080 13887 ft 329 kts 44°
2026-04-25 13:50 28.63688 -81.70235 14334 ft 331 kts 39°
2026-04-25 13:50 28.65431 -81.68486 14790 ft 333 kts 36°
2026-04-25 13:50 28.67234 -81.66838 15219 ft 338 kts 35°
2026-04-25 13:51 28.69095 -81.65168 15666 ft 341 kts 35°
2026-04-25 13:51 28.70957 -81.63484 15959 ft 342 kts 35°
2026-04-25 13:51 28.72816 -81.61786 15888 ft 342 kts 36°
2026-04-25 13:51 28.74669 -81.60081 15931 ft 341 kts 36°
2026-04-25 13:52 28.76514 -81.58381 15939 ft 342 kts 36°
2026-04-25 13:52 28.78370 -81.56677 15949 ft 344 kts 36°
2026-04-25 13:52 28.80235 -81.54970 15946 ft 344 kts 35°
2026-04-25 13:52 28.82103 -81.53263 15952 ft 344 kts 35°
2026-04-25 13:53 28.83971 -81.51560 15959 ft 344 kts 35°
2026-04-25 13:53 28.85843 -81.49854 15967 ft 344 kts 35°
2026-04-25 13:53 28.87706 -81.48154 15976 ft 343 kts 35°
2026-04-25 13:53 28.89578 -81.46449 15965 ft 343 kts 35°
2026-04-25 13:54 28.91458 -81.44767 15948 ft 343 kts 31°
2026-04-25 13:54 28.93488 -81.43351 16195 ft 340 kts 21°
2026-04-25 13:54 28.95635 -81.42323 16682 ft 339 kts 15°
2026-04-25 13:54 28.97964 -81.41696 17031 ft 338 kts
2026-04-25 13:55 29.00284 -81.41670 17432 ft 339 kts 352°
2026-04-25 13:55 29.02635 -81.41952 17817 ft 341 kts 349°
2026-04-25 13:55 29.05013 -81.42318 18273 ft 343 kts 349°
2026-04-25 13:55 29.07403 -81.42659 18687 ft 345 kts 351°
2026-04-25 13:56 29.09794 -81.42947 19122 ft 347 kts 352°
2026-04-25 13:56 29.12177 -81.43208 19530 ft 349 kts 353°
2026-04-25 13:56 29.14617 -81.43439 19937 ft 351 kts 353°
2026-04-25 13:56 29.17047 -81.43658 20338 ft 352 kts 353°
2026-04-25 13:57 29.19519 -81.43877 20715 ft 354 kts 353°
2026-04-25 13:57 29.20346 -81.43951 20851 ft 355 kts 353°
2026-04-25 13:57 29.24460 -81.44334 21463 ft 358 kts 353°
2026-04-25 13:57 29.26931 -81.44572 21853 ft 359 kts 353°
2026-04-25 13:58 29.29449 -81.44808 22217 ft 361 kts 353°
2026-04-25 13:58 29.31959 -81.45039 22583 ft 362 kts 353°
2026-04-25 13:58 29.34471 -81.45274 22919 ft 364 kts 353°
2026-04-25 13:58 29.37024 -81.45517 23235 ft 367 kts 353°
2026-04-25 13:59 29.39564 -81.45759 23594 ft 368 kts 353°
2026-04-25 13:59 29.42119 -81.45999 23901 ft 370 kts 354°
2026-04-25 13:59 29.44720 -81.46240 24224 ft 372 kts 354°
2026-04-25 13:59 29.47298 -81.46481 24538 ft 374 kts 354°
2026-04-25 14:00 29.49922 -81.46730 24857 ft 375 kts 354°
2026-04-25 14:00 29.52526 -81.46980 25156 ft 376 kts 354°
2026-04-25 14:00 29.55117 -81.47221 25455 ft 378 kts 354°
2026-04-25 14:00 29.57781 -81.47468 25748 ft 380 kts 354°
2026-04-25 14:01 29.60402 -81.47710 26028 ft 381 kts 354°
2026-04-25 14:01 29.63041 -81.47945 26344 ft 382 kts 354°
2026-04-25 14:01 29.65702 -81.48189 26608 ft 384 kts 354°
2026-04-25 14:01 29.68387 -81.48438 26864 ft 386 kts 355°
2026-04-25 14:02 29.71069 -81.48684 27132 ft 388 kts 355°
2026-04-25 14:02 29.73764 -81.48927 27390 ft 389 kts 355°
2026-04-25 14:02 29.76485 -81.49170 27658 ft 391 kts 355°
2026-04-25 14:02 29.77392 -81.49253 27748 ft 391 kts 355°
2026-04-25 14:03 29.81933 -81.49674 28173 ft 394 kts 355°
2026-04-25 14:03 29.84634 -81.49945 28428 ft 395 kts 353°
2026-04-25 14:03 29.87365 -81.50369 28693 ft 396 kts 351°
2026-04-25 14:03 29.90081 -81.50967 28940 ft 397 kts 348°
2026-04-25 14:04 29.92775 -81.51718 28961 ft 396 kts 345°
2026-04-25 14:04 29.98051 -81.53548 28981 ft 395 kts 343°
2026-04-25 14:05 30.03320 -81.55437 28972 ft 398 kts 343°
2026-04-25 14:05 30.08660 -81.57341 28971 ft 400 kts 343°
2026-04-25 14:06 30.13983 -81.59258 28978 ft 400 kts 343°
2026-04-25 14:06 30.19269 -81.61149 28971 ft 399 kts 343°
2026-04-25 14:07 30.24585 -81.63064 29123 ft 397 kts 343°
2026-04-25 14:07 30.27220 -81.64009 29443 ft 397 kts 343°
2026-04-25 14:07 30.29863 -81.64956 29667 ft 399 kts 343°
2026-04-25 14:07 30.32551 -81.65919 29797 ft 403 kts 343°
2026-04-25 14:08 30.35244 -81.66889 29939 ft 407 kts 343°
2026-04-25 14:08 30.37974 -81.67870 30103 ft 410 kts 343°
2026-04-25 14:08 30.40714 -81.68850 30259 ft 414 kts 343°
2026-04-25 14:08 30.43510 -81.69850 30420 ft 418 kts 343°
2026-04-25 14:09 30.46310 -81.70862 30581 ft 421 kts 343°
2026-04-25 14:09 30.49169 -81.71894 30756 ft 425 kts 343°
2026-04-25 14:09 30.51985 -81.72895 30934 ft 428 kts 343°
2026-04-25 14:10 30.57770 -81.74953 30972 ft 436 kts 345°
2026-04-25 14:10 30.63800 -81.76098 30975 ft 444 kts 358°
2026-04-25 14:11 30.70014 -81.75753 30956 ft 453 kts
2026-04-25 14:11 30.76354 -81.74907 30945 ft 464 kts
2026-04-25 14:12 30.82881 -81.74072 30931 ft 475 kts
2026-04-25 14:12 30.89560 -81.73251 30925 ft 478 kts
2026-04-25 14:13 30.96085 -81.72427 30923 ft 463 kts
2026-04-25 14:13 31.02408 -81.71643 30944 ft 451 kts
2026-04-25 14:14 31.08672 -81.70861 30952 ft 449 kts
2026-04-25 14:14 31.14894 -81.69910 30955 ft 451 kts
2026-04-25 14:15 31.21105 -81.68185 30944 ft 453 kts 15°
2026-04-25 14:15 31.27167 -81.65990 30942 ft 453 kts 16°
2026-04-25 14:16 31.33200 -81.63792 30939 ft 453 kts 16°
2026-04-25 14:16 31.39221 -81.61574 30938 ft 453 kts 16°
2026-04-25 14:17 31.45264 -81.59356 30939 ft 453 kts 16°
2026-04-25 14:17 31.51271 -81.57141 30937 ft 453 kts 16°
2026-04-25 14:18 31.57290 -81.54931 30932 ft 453 kts 15°
2026-04-25 14:18 31.63318 -81.52710 30935 ft 452 kts 16°
2026-04-25 14:19 31.69386 -81.50479 30937 ft 453 kts 15°
2026-04-25 14:19 31.75395 -81.48267 30932 ft 453 kts 16°
2026-04-25 14:20 31.81438 -81.46046 30938 ft 453 kts 15°
2026-04-25 14:20 31.87509 -81.43812 30934 ft 453 kts 16°
2026-04-25 14:21 31.93549 -81.41591 30931 ft 453 kts 15°
2026-04-25 14:21 31.99560 -81.39381 30932 ft 454 kts 16°
2026-04-25 14:22 32.05620 -81.37139 30933 ft 453 kts 15°
2026-04-25 14:22 32.11647 -81.34879 30935 ft 453 kts 16°
2026-04-25 14:23 32.17712 -81.32626 30936 ft 453 kts 16°
2026-04-25 14:23 32.23721 -81.30379 30932 ft 453 kts 16°
2026-04-25 14:24 32.29806 -81.28114 30932 ft 454 kts 16°
2026-04-25 14:24 32.35865 -81.25851 30925 ft 455 kts 16°
2026-04-25 14:25 32.41912 -81.23601 30925 ft 454 kts 16°
2026-04-25 14:25 32.47823 -81.20816 30928 ft 456 kts 26°
2026-04-25 14:26 32.53126 -81.16653 30936 ft 459 kts 36°
2026-04-25 14:26 32.58081 -81.11787 30931 ft 461 kts 38°
2026-04-25 14:27 32.63000 -81.06864 30922 ft 461 kts 37°
2026-04-25 14:27 32.67945 -81.02045 30924 ft 461 kts 37°
2026-04-25 14:28 32.72884 -80.97182 30921 ft 460 kts 37°
2026-04-25 14:28 32.77862 -80.92308 30925 ft 461 kts 37°
2026-04-25 14:29 32.82780 -80.87489 30924 ft 461 kts 37°
2026-04-25 14:29 32.87777 -80.82586 30924 ft 460 kts 37°
2026-04-25 14:30 32.92741 -80.77729 30928 ft 461 kts 37°
2026-04-25 14:30 33.00216 -80.70412 30930 ft 461 kts 37°
2026-04-25 14:31 33.05175 -80.65558 30931 ft 462 kts 37°
2026-04-25 14:31 33.10162 -80.60679 30921 ft 462 kts 37°
2026-04-25 14:32 33.15163 -80.55796 30913 ft 462 kts 37°
2026-04-25 14:32 33.20129 -80.50906 30913 ft 462 kts 37°
2026-04-25 14:33 33.25051 -80.45982 30916 ft 461 kts 37°
2026-04-25 14:33 33.29987 -80.41056 30919 ft 462 kts 37°
2026-04-25 14:34 33.34967 -80.36098 30908 ft 463 kts 37°
2026-04-25 14:34 33.39909 -80.31170 30899 ft 463 kts 38°
2026-04-25 14:35 33.44892 -80.26218 30904 ft 463 kts 38°
2026-04-25 14:35 33.49869 -80.21255 30901 ft 464 kts 38°
2026-04-25 14:36 33.54862 -80.16301 30910 ft 464 kts 38°
2026-04-25 14:36 33.59826 -80.11355 30904 ft 464 kts 38°
2026-04-25 14:37 33.65025 -80.06798 30910 ft 461 kts 30°
2026-04-25 14:37 33.70619 -80.03033 30904 ft 460 kts 25°
2026-04-25 14:38 33.76366 -79.99561 30909 ft 461 kts 25°
2026-04-25 14:38 33.82106 -79.96037 30903 ft 462 kts 26°
2026-04-25 14:39 33.87839 -79.92506 30908 ft 462 kts 25°
2026-04-25 14:39 33.93567 -79.88990 30905 ft 462 kts 25°
2026-04-25 14:40 33.99323 -79.85461 30911 ft 462 kts 25°
2026-04-25 14:40 34.05072 -79.81941 30907 ft 463 kts 25°
2026-04-25 14:41 34.10876 -79.78393 30908 ft 464 kts 25°
2026-04-25 14:41 34.16652 -79.74868 30918 ft 464 kts 25°
2026-04-25 14:42 34.20521 -79.72503 30918 ft 465 kts 25°
2026-04-25 14:42 34.28178 -79.67757 30903 ft 465 kts 25°
2026-04-25 14:43 34.33958 -79.64203 30897 ft 466 kts 25°
2026-04-25 14:43 34.39756 -79.60606 30906 ft 466 kts 25°
2026-04-25 14:44 34.45536 -79.57042 30898 ft 467 kts 25°
2026-04-25 14:44 34.51321 -79.53427 30904 ft 467 kts 25°
2026-04-25 14:45 34.57117 -79.49832 30906 ft 468 kts 26°
2026-04-25 14:45 34.62793 -79.45978 30910 ft 468 kts 28°
2026-04-25 14:46 34.68446 -79.42108 30901 ft 470 kts 27°
2026-04-25 14:46 34.74237 -79.38216 30908 ft 481 kts 27°
2026-04-25 14:47 34.78142 -79.35538 30910 ft 488 kts 27°
2026-04-25 14:47 34.86155 -79.30042 30896 ft 501 kts 28°
2026-04-25 14:48 34.92250 -79.25889 30892 ft 501 kts 28°
2026-04-25 14:48 34.98320 -79.21731 30895 ft 499 kts 27°
2026-04-25 14:49 35.04363 -79.17614 30886 ft 500 kts 27°
2026-04-25 14:49 35.10461 -79.13440 30909 ft 500 kts 27°
2026-04-25 14:50 35.16511 -79.09324 30893 ft 500 kts 27°
2026-04-25 14:50 35.22574 -79.05177 30905 ft 500 kts 27°
2026-04-25 14:51 35.28677 -79.01014 30904 ft 500 kts 27°
2026-04-25 14:51 35.34755 -78.96872 30888 ft 501 kts 27°
2026-04-25 14:52 35.40879 -78.92690 30886 ft 501 kts 26°
2026-04-25 14:52 35.45964 -78.89236 30884 ft 502 kts 27°
2026-04-25 14:53 35.53050 -78.84309 30905 ft 502 kts 27°
2026-04-25 14:53 35.59199 -78.80053 30904 ft 503 kts 27°
2026-04-25 14:54 35.65289 -78.75857 30904 ft 504 kts 27°
2026-04-25 14:54 35.71422 -78.71547 30905 ft 504 kts 27°
2026-04-25 14:55 35.77513 -78.67250 30897 ft 504 kts 27°
2026-04-25 14:55 35.83658 -78.62943 30888 ft 506 kts 26°
2026-04-25 14:56 35.89774 -78.58644 30891 ft 506 kts 27°
2026-04-25 14:56 35.95868 -78.54369 30893 ft 507 kts 26°
2026-04-25 14:57 36.02036 -78.50043 30900 ft 508 kts 26°
2026-04-25 14:57 36.08231 -78.45697 30890 ft 509 kts 26°
2026-04-25 14:58 36.14440 -78.41346 30883 ft 510 kts 26°
2026-04-25 14:58 36.20606 -78.37017 30884 ft 508 kts 26°
2026-04-25 14:59 36.26745 -78.32729 30883 ft 508 kts 27°
2026-04-25 14:59 36.32940 -78.28372 30869 ft 510 kts 26°
2026-04-25 15:00 36.39296 -78.24663 30877 ft 507 kts 18°
2026-04-25 15:00 36.46014 -78.21987 30871 ft 505 kts 13°
2026-04-25 15:01 36.52751 -78.19604 30860 ft 505 kts 13°
2026-04-25 15:01 36.59530 -78.17107 30860 ft 505 kts 13°
2026-04-25 15:02 36.66269 -78.14606 30868 ft 504 kts 13°
2026-04-25 15:02 36.73027 -78.12113 30870 ft 505 kts 13°
2026-04-25 15:03 36.79765 -78.09639 30871 ft 507 kts 13°
2026-04-25 15:03 36.86576 -78.07142 30882 ft 508 kts 13°
2026-04-25 15:04 36.93377 -78.04655 30877 ft 507 kts 12°
2026-04-25 15:04 37.00174 -78.02167 30879 ft 507 kts 12°
2026-04-25 15:05 37.06947 -77.99690 30873 ft 508 kts 12°
2026-04-25 15:06 37.17158 -77.95954 30892 ft 508 kts 12°
2026-04-25 15:06 37.23959 -77.93468 30893 ft 508 kts 12°
2026-04-25 15:07 37.30758 -77.90939 30888 ft 508 kts 13°
2026-04-25 15:07 37.37559 -77.88418 30891 ft 508 kts 12°
2026-04-25 15:08 37.44370 -77.85896 30876 ft 508 kts 13°
2026-04-25 15:08 37.51141 -77.83286 30877 ft 509 kts 14°
2026-04-25 15:09 37.57816 -77.80238 30887 ft 511 kts 18°
2026-04-25 15:09 37.67673 -77.74983 30888 ft 511 kts 19°
2026-04-25 15:10 37.74242 -77.71523 30899 ft 511 kts 19°
2026-04-25 15:11 37.84076 -77.66296 30898 ft 511 kts 19°
2026-04-25 15:11 37.90669 -77.62831 30902 ft 511 kts 19°
2026-04-25 15:12 38.00519 -77.57591 30899 ft 511 kts 19°
2026-04-25 15:12 38.04936 -77.55276 30893 ft 512 kts 19°
2026-04-25 15:13 38.17013 -77.48863 30894 ft 511 kts 18°
2026-04-25 15:14 38.23570 -77.45400 30910 ft 511 kts 19°
2026-04-25 15:14 38.30157 -77.41900 30905 ft 511 kts 18°
2026-04-25 15:15 38.36738 -77.38384 30898 ft 511 kts 22°
2026-04-25 15:15 38.42789 -77.33463 30918 ft 519 kts 37°
2026-04-25 15:16 38.47794 -77.26795 30923 ft 525 kts 49°
2026-04-25 15:16 38.54683 -77.15885 30922 ft 525 kts 46°
2026-04-25 15:17 38.61910 -77.05411 30928 ft 524 kts 45°
2026-04-25 15:18 38.66742 -76.98377 30936 ft 523 kts 45°
2026-04-25 15:18 38.73987 -76.87904 30936 ft 523 kts 45°
2026-04-25 15:19 38.77210 -76.83232 30944 ft 523 kts 45°
2026-04-25 15:19 38.83603 -76.73890 30954 ft 524 kts 45°
2026-04-25 15:20 38.88352 -76.66810 30957 ft 524 kts 45°
2026-04-25 15:20 38.93123 -76.59718 30970 ft 523 kts 45°
2026-04-25 15:21 38.97886 -76.52660 30960 ft 523 kts 45°
2026-04-25 15:21 39.02662 -76.45592 30957 ft 523 kts 45°
2026-04-25 15:22 39.07441 -76.38522 30965 ft 523 kts 45°
2026-04-25 15:22 39.12217 -76.31473 30966 ft 523 kts 45°
2026-04-25 15:23 39.16995 -76.24400 30982 ft 524 kts 45°
2026-04-25 15:23 39.21809 -76.17344 30982 ft 524 kts 45°
2026-04-25 15:24 39.26592 -76.10266 30980 ft 524 kts 45°
2026-04-25 15:24 39.29774 -76.05572 30980 ft 525 kts 45°
2026-04-25 15:25 39.36119 -75.95953 30990 ft 526 kts 46°
2026-04-25 15:25 39.40841 -75.88789 30989 ft 526 kts 45°
2026-04-25 15:26 39.45595 -75.81612 30981 ft 526 kts 45°
2026-04-25 15:26 39.50311 -75.74463 30980 ft 525 kts 45°
2026-04-25 15:27 39.55089 -75.67268 30992 ft 525 kts 45°
2026-04-25 15:28 39.62222 -75.56509 31006 ft 526 kts 44°
2026-04-25 15:28 39.66826 -75.49162 31011 ft 528 kts 48°
2026-04-25 15:29 39.71201 -75.41488 31013 ft 528 kts 50°
2026-04-25 15:29 39.75470 -75.33763 31019 ft 529 kts 50°
2026-04-25 15:30 39.79787 -75.26070 31019 ft 529 kts 50°
2026-04-25 15:30 39.84092 -75.18320 31019 ft 529 kts 50°
2026-04-25 15:31 39.88429 -75.10595 31029 ft 529 kts 49°
2026-04-25 15:31 39.92737 -75.02883 31041 ft 529 kts 49°
2026-04-25 15:32 39.97091 -74.95119 31043 ft 528 kts 49°
2026-04-25 15:32 40.01310 -74.87260 31043 ft 531 kts 52°
2026-04-25 15:33 40.07328 -74.75162 31047 ft 530 kts 52°
2026-04-25 15:33 40.11364 -74.67160 31048 ft 530 kts 51°
2026-04-25 15:34 40.15433 -74.59087 31064 ft 530 kts 52°
2026-04-25 15:34 40.18147 -74.53751 31061 ft 528 kts 49°
2026-04-25 15:35 40.24741 -74.44590 31068 ft 514 kts 33°
2026-04-25 15:35 40.27512 -74.41670 31065 ft 513 kts 32°
2026-04-25 15:36 40.35854 -74.32886 31048 ft 514 kts 33°
2026-04-25 15:36 40.41376 -74.26903 31058 ft 514 kts 33°
2026-04-25 15:37 40.46890 -74.20941 31067 ft 514 kts 33°
2026-04-25 15:37 40.52410 -74.14999 31068 ft 513 kts 33°
2026-04-25 15:38 40.57914 -74.09136 31078 ft 511 kts 32°
2026-04-25 15:38 40.63473 -74.03274 31087 ft 511 kts 33°
2026-04-25 15:39 40.68913 -73.97289 31092 ft 512 kts 33°
2026-04-25 15:39 40.74369 -73.91290 31089 ft 511 kts 33°
2026-04-25 15:40 40.78007 -73.87327 31094 ft 511 kts 33°
2026-04-25 15:40 40.85418 -73.79655 31112 ft 501 kts 25°
2026-04-25 15:41 40.91584 -73.75648 31111 ft 488 kts 13°
2026-04-25 15:41 40.97982 -73.72680 31100 ft 487 kts 12°
2026-04-25 15:42 41.04367 -73.69656 31099 ft 488 kts 13°
2026-04-25 15:42 41.10716 -73.66554 31104 ft 487 kts 13°
2026-04-25 15:43 41.17075 -73.63464 31117 ft 486 kts 12°
2026-04-25 15:43 41.23406 -73.60421 31106 ft 484 kts 11°
2026-04-25 15:44 41.29871 -73.58148 31107 ft 474 kts
2026-04-25 15:44 41.36377 -73.57015 31111 ft 470 kts 359°
2026-04-25 15:45 41.42858 -73.56160 31113 ft 469 kts 359°
2026-04-25 15:45 41.47156 -73.55558 31109 ft 469 kts 359°
2026-04-25 15:46 41.55833 -73.54327 31104 ft 470 kts 359°
2026-04-25 15:46 41.62323 -73.53415 31104 ft 469 kts 359°
2026-04-25 15:47 41.68770 -73.52518 31101 ft 468 kts 359°
2026-04-25 15:47 41.75258 -73.51625 31089 ft 468 kts 359°
2026-04-25 15:48 41.81733 -73.50732 31081 ft 468 kts 359°
2026-04-25 15:48 41.88174 -73.49845 31069 ft 467 kts 359°
2026-04-25 15:49 41.94663 -73.48953 31059 ft 467 kts 359°
2026-04-25 15:49 42.01136 -73.48056 31054 ft 467 kts 359°
2026-04-25 15:50 42.07547 -73.47155 31055 ft 463 kts 355°
2026-04-25 15:50 42.13999 -73.46803 31053 ft 465 kts 357°
2026-04-25 15:51 42.18326 -73.46293 31052 ft 467 kts 358°
2026-04-25 15:51 42.26936 -73.45364 31051 ft 466 kts 357°
2026-04-25 15:52 42.33398 -73.44713 31048 ft 466 kts 357°
2026-04-25 15:52 42.39840 -73.43922 31052 ft 467 kts 359°
2026-04-25 15:53 42.46271 -73.42883 31047 ft 467 kts 359°
2026-04-25 15:53 42.52699 -73.41870 31048 ft 466 kts 359°
2026-04-25 15:54 42.59148 -73.40929 31059 ft 467 kts 358°
2026-04-25 15:54 42.65614 -73.40151 31054 ft 466 kts 358°
2026-04-25 15:55 42.72100 -73.39176 31048 ft 467 kts 359°
2026-04-25 15:55 42.78540 -73.38213 31057 ft 468 kts 359°
2026-04-25 15:56 42.84981 -73.37102 31058 ft 469 kts
2026-04-25 15:56 42.91427 -73.35894 31055 ft 467 kts 360°
2026-04-25 15:57 42.97872 -73.34759 31051 ft 467 kts
2026-04-25 15:57 43.04287 -73.33784 31046 ft 464 kts 356°
2026-04-25 15:58 43.10737 -73.33369 31046 ft 464 kts 356°
2026-04-25 15:58 43.17168 -73.32770 31046 ft 465 kts 358°
2026-04-25 15:59 43.23615 -73.32093 31041 ft 464 kts 356°
2026-04-25 15:59 43.30048 -73.31602 31043 ft 465 kts 357°
2026-04-25 16:00 43.34343 -73.31162 31054 ft 467 kts 358°
2026-04-25 16:00 43.42963 -73.30197 31041 ft 466 kts 358°
2026-04-25 16:01 43.49398 -73.29497 31061 ft 466 kts 358°
2026-04-25 16:01 43.55864 -73.28777 31058 ft 466 kts 357°
2026-04-25 16:02 43.62320 -73.28070 31048 ft 466 kts 358°
2026-04-25 16:02 43.68769 -73.27351 31060 ft 467 kts 357°
2026-04-25 16:03 43.75274 -73.26642 31044 ft 467 kts 358°
2026-04-25 16:03 43.81728 -73.25916 31044 ft 466 kts 358°
2026-04-25 16:04 43.88202 -73.25221 31045 ft 467 kts 358°
2026-04-25 16:04 43.94651 -73.24046 31051 ft 476 kts
2026-04-25 16:05 44.00935 -73.20702 31070 ft 493 kts 21°
2026-04-25 16:05 44.06614 -73.15081 31048 ft 509 kts 36°
2026-04-25 16:06 44.09070 -73.11530 31043 ft 516 kts 43°
2026-04-25 16:06 44.13206 -73.03254 31045 ft 526 kts 51°
2026-04-25 16:07 44.17063 -72.94675 31049 ft 525 kts 50°
2026-04-25 16:07 44.21081 -72.86221 31049 ft 524 kts 48°
2026-04-25 16:08 44.25183 -72.77828 31041 ft 523 kts 48°
2026-04-25 16:08 44.29255 -72.69445 31065 ft 522 kts 48°
2026-04-25 16:09 44.33324 -72.61080 31059 ft 522 kts 47°
2026-04-25 16:09 44.37396 -72.52715 31071 ft 521 kts 47°
2026-04-25 16:10 44.41475 -72.44365 31057 ft 521 kts 47°
2026-04-25 16:10 44.45560 -72.36006 31063 ft 520 kts 47°
2026-04-25 16:11 44.49637 -72.27696 31033 ft 520 kts 47°
2026-04-25 16:11 44.53714 -72.19387 31018 ft 520 kts 47°
2026-04-25 16:12 44.57795 -72.11078 31051 ft 519 kts 47°
2026-04-25 16:12 44.61752 -72.02674 31047 ft 519 kts 49°
2026-04-25 16:13 44.65672 -71.94214 31056 ft 519 kts 48°
2026-04-25 16:13 44.69646 -71.85712 31050 ft 519 kts 48°
2026-04-25 16:14 44.73598 -71.77303 31038 ft 518 kts 47°
2026-04-25 16:14 44.77559 -71.68893 31040 ft 516 kts 47°
2026-04-25 16:15 44.81515 -71.60496 31031 ft 516 kts 47°
2026-04-25 16:15 44.85484 -71.52084 31027 ft 516 kts 47°
2026-04-25 16:16 44.89442 -71.43695 31023 ft 515 kts 46°
2026-04-25 16:16 44.93410 -71.35323 31014 ft 514 kts 46°
2026-04-25 16:17 44.97376 -71.26957 31002 ft 513 kts 47°
2026-04-25 16:17 45.01331 -71.18630 31003 ft 515 kts 46°
2026-04-25 16:18 45.05284 -71.10231 31007 ft 514 kts 47°
2026-04-25 16:18 45.09108 -71.01764 31015 ft 514 kts 49°
2026-04-25 16:19 45.12554 -70.92827 31037 ft 524 kts 55°
2026-04-25 16:19 45.15474 -70.83359 31031 ft 528 kts 58°
2026-04-25 16:20 45.19718 -70.69074 31025 ft 523 kts 57°
2026-04-25 16:21 45.24045 -70.54903 31024 ft 522 kts 57°
2026-04-25 16:21 45.26909 -70.45490 31040 ft 522 kts 57°
2026-04-25 16:22 45.29779 -70.36124 31042 ft 520 kts 57°
2026-04-25 16:22 45.32669 -70.26705 31046 ft 518 kts 58°
2026-04-25 16:23 45.35530 -70.17412 31066 ft 515 kts 58°
2026-04-25 16:23 45.38392 -70.08134 31079 ft 514 kts 58°
2026-04-25 16:24 45.41259 -69.98865 31069 ft 513 kts 58°
2026-04-25 16:24 45.44139 -69.89596 31064 ft 513 kts 58°
2026-04-25 16:25 45.46998 -69.80357 31060 ft 510 kts 59°
2026-04-25 16:25 45.49714 -69.71077 31069 ft 509 kts 61°
2026-04-25 16:26 45.52385 -69.61739 31087 ft 509 kts 61°
2026-04-25 16:26 45.55059 -69.52490 31071 ft 507 kts 60°
2026-04-25 16:27 45.57756 -69.43233 31074 ft 505 kts 61°
2026-04-25 16:27 45.60442 -69.34042 31087 ft 503 kts 62°
2026-04-25 16:28 45.63141 -69.24844 31061 ft 502 kts 62°
2026-04-25 16:28 45.65832 -69.15683 31057 ft 499 kts 62°
2026-04-25 16:29 45.68502 -69.06612 31063 ft 497 kts 62°
2026-04-25 16:29 45.71175 -68.97569 31105 ft 497 kts 62°
2026-04-25 16:30 45.73863 -68.88490 31110 ft 496 kts 62°
2026-04-25 16:30 45.76555 -68.79454 31122 ft 495 kts 63°
2026-04-25 16:31 45.79226 -68.70430 31104 ft 494 kts 63°
2026-04-25 16:31 45.81771 -68.61350 31129 ft 493 kts 64°
2026-04-25 16:32 45.84300 -68.52215 31105 ft 491 kts 64°
2026-04-25 16:32 45.86827 -68.43177 31100 ft 490 kts 64°
2026-04-25 16:33 45.89377 -68.34114 31100 ft 488 kts 65°
2026-04-25 16:33 45.91906 -68.25158 31133 ft 487 kts 65°
2026-04-25 16:34 45.94443 -68.16190 31104 ft 485 kts 65°
2026-04-25 16:34 45.96985 -68.07259 31111 ft 485 kts 65°
2026-04-25 16:35 45.99536 -67.98286 31093 ft 485 kts 65°
2026-04-25 16:35 46.02113 -67.89365 31080 ft 484 kts 63°
2026-04-25 16:36 46.05314 -67.80949 31085 ft 481 kts 54°
2026-04-25 16:36 46.09106 -67.73097 31087 ft 479 kts 52°
2026-04-25 16:37 46.12953 -67.65250 31087 ft 478 kts 53°
2026-04-25 16:37 46.16742 -67.57413 31061 ft 479 kts 53°
2026-04-25 16:38 46.20541 -67.49544 31076 ft 479 kts 53°
2026-04-25 16:38 46.24351 -67.41659 31078 ft 480 kts 53°
2026-04-25 16:39 46.28160 -67.33798 31061 ft 480 kts 53°
2026-04-25 16:39 46.31986 -67.25929 31056 ft 479 kts 53°
2026-04-25 16:40 46.35795 -67.18115 31053 ft 478 kts 54°
2026-04-25 16:40 46.39631 -67.10248 31045 ft 479 kts 54°
2026-04-25 16:41 46.43480 -67.02374 31048 ft 479 kts 53°
2026-04-25 16:41 46.49253 -66.90595 31027 ft 478 kts 53°
2026-04-25 16:42 46.53103 -66.82761 31021 ft 479 kts 53°
2026-04-25 16:42 46.56954 -66.74895 31016 ft 479 kts 54°
2026-04-25 16:43 46.60689 -66.66926 31010 ft 479 kts 54°
2026-04-25 16:43 46.64397 -66.58933 31012 ft 478 kts 54°
2026-04-25 16:44 46.68121 -66.50961 31012 ft 478 kts 54°
2026-04-25 16:44 46.71853 -66.42997 31013 ft 477 kts 54°
2026-04-25 16:45 46.75599 -66.35014 31004 ft 477 kts 54°
2026-04-25 16:45 46.79357 -66.27020 31009 ft 477 kts 54°
2026-04-25 16:46 46.83108 -66.19055 31010 ft 476 kts 54°
2026-04-25 16:46 46.85608 -66.13753 30991 ft 477 kts 54°
2026-04-25 16:47 46.90606 -66.03155 31004 ft 477 kts 54°
2026-04-25 16:47 46.94379 -65.95184 31013 ft 476 kts 54°
2026-04-25 16:48 46.98139 -65.87244 31001 ft 476 kts 53°
2026-04-25 16:48 47.01924 -65.79279 30996 ft 474 kts 53°
2026-04-25 16:49 47.05620 -65.71303 31010 ft 474 kts 54°
2026-04-25 16:49 47.09216 -65.63236 31009 ft 474 kts 55°
2026-04-25 16:50 47.12837 -65.55161 31001 ft 475 kts 54°
2026-04-25 16:50 47.16475 -65.47119 30996 ft 474 kts 54°
2026-04-25 16:51 47.20101 -65.39112 31004 ft 472 kts 54°
2026-04-25 16:51 47.22536 -65.33727 31003 ft 472 kts 55°
2026-04-25 16:52 47.27365 -65.23074 30975 ft 471 kts 54°
2026-04-25 16:52 47.31016 -65.15038 30977 ft 471 kts 54°
2026-04-25 16:53 47.36485 -65.03021 30987 ft 471 kts 54°
2026-04-25 16:54 47.40141 -64.95008 30986 ft 470 kts 54°
2026-04-25 16:54 47.43793 -64.87019 30987 ft 470 kts 54°
2026-04-25 16:55 47.47435 -64.79061 30988 ft 469 kts 53°
2026-04-25 16:55 47.51052 -64.71056 31001 ft 470 kts 54°
2026-04-25 16:56 47.54549 -64.62945 31003 ft 471 kts 55°
2026-04-25 16:56 47.58066 -64.54777 30999 ft 469 kts 54°
2026-04-25 16:57 47.61615 -64.46609 31000 ft 469 kts 54°
2026-04-25 16:57 47.65161 -64.38473 30996 ft 468 kts 54°
2026-04-25 16:58 47.68696 -64.30369 30985 ft 469 kts 55°
2026-04-25 16:58 47.72224 -64.22285 30978 ft 469 kts 54°
2026-04-25 16:59 47.75755 -64.14210 30990 ft 467 kts 54°
2026-04-25 16:59 47.79305 -64.06102 30987 ft 467 kts 54°
2026-04-25 17:00 47.82844 -63.98032 30985 ft 468 kts 54°
2026-04-25 17:00 47.86411 -63.89928 30972 ft 468 kts 54°
2026-04-25 17:01 47.89954 -63.81881 30963 ft 468 kts 54°
2026-04-25 17:01 47.93515 -63.73812 30951 ft 467 kts 53°
2026-04-25 17:02 47.97020 -63.65689 30949 ft 466 kts 55°
2026-04-25 17:02 48.00422 -63.57462 30947 ft 467 kts 55°
2026-04-25 17:03 48.03828 -63.49234 30950 ft 467 kts 54°
2026-04-25 17:03 48.07270 -63.41006 30948 ft 467 kts 54°
2026-04-25 17:04 48.10737 -63.32737 30943 ft 467 kts 55°
2026-04-25 17:04 48.14166 -63.24565 30957 ft 467 kts 55°
2026-04-25 17:05 48.17616 -63.16348 30942 ft 468 kts 54°
2026-04-25 17:05 48.22810 -63.04013 30930 ft 466 kts 54°
2026-04-25 17:06 48.26268 -62.95819 30936 ft 466 kts 54°
2026-04-25 17:06 48.29751 -62.87581 30923 ft 466 kts 54°
2026-04-25 17:07 48.33233 -62.79368 30920 ft 466 kts 53°
2026-04-25 17:07 48.36711 -62.71179 30923 ft 466 kts 53°
2026-04-25 17:08 48.40176 -62.62953 30918 ft 465 kts 54°
2026-04-25 17:08 48.43514 -62.54615 30920 ft 466 kts 55°
2026-04-25 17:09 48.46850 -62.46247 30918 ft 466 kts 54°
2026-04-25 17:09 48.50196 -62.37917 30910 ft 466 kts 54°
2026-04-25 17:10 48.53545 -62.29587 30929 ft 465 kts 54°
2026-04-25 17:10 48.56909 -62.21236 30923 ft 466 kts 54°
2026-04-25 17:11 48.60267 -62.12899 30917 ft 466 kts 54°
2026-04-25 17:11 48.63615 -62.04608 30903 ft 466 kts 54°
2026-04-25 17:12 48.66996 -61.96253 30881 ft 466 kts 53°
2026-04-25 17:12 48.70359 -61.87957 30865 ft 465 kts 53°
2026-04-25 17:13 48.72627 -61.82379 30864 ft 464 kts 53°
2026-04-25 17:13 48.77123 -61.71354 30864 ft 464 kts 53°
2026-04-25 17:14 48.80522 -61.63023 30850 ft 464 kts 53°
2026-04-25 17:14 48.83882 -61.54695 30839 ft 464 kts 54°
2026-04-25 17:15 48.87129 -61.46221 30833 ft 465 kts 55°
2026-04-25 17:15 48.90351 -61.37787 30828 ft 464 kts 55°
2026-04-25 17:16 48.93591 -61.29352 30838 ft 463 kts 56°
2026-04-25 17:16 48.96850 -61.20921 30821 ft 463 kts 56°
2026-04-25 17:17 49.00108 -61.12500 30838 ft 463 kts 56°
2026-04-25 17:17 49.03362 -61.04102 30827 ft 462 kts 55°
2026-04-25 17:18 49.06638 -60.95667 30830 ft 461 kts 55°
2026-04-25 17:18 49.09904 -60.87267 30835 ft 462 kts 55°
2026-04-25 17:19 49.13174 -60.78875 30845 ft 460 kts 55°
2026-04-25 17:19 49.16439 -60.70509 30828 ft 458 kts 55°
2026-04-25 17:20 49.19693 -60.62201 30823 ft 457 kts 55°
2026-04-25 17:20 49.22950 -60.53893 30841 ft 456 kts 55°
2026-04-25 17:21 49.26174 -60.45561 30817 ft 455 kts 56°
2026-04-25 17:21 49.29262 -60.37161 30813 ft 455 kts 57°
2026-04-25 17:22 49.31307 -60.31573 30842 ft 453 kts 57°
2026-04-25 17:22 49.35418 -60.20401 30812 ft 453 kts 57°
2026-04-25 17:23 49.38519 -60.12028 30844 ft 452 kts 57°
2026-04-25 17:23 49.41611 -60.03686 30828 ft 451 kts 57°
2026-04-25 17:24 49.44714 -59.95339 30827 ft 448 kts 57°
2026-04-25 17:24 49.47791 -59.87071 30832 ft 447 kts 57°
2026-04-25 17:25 49.50866 -59.78818 30833 ft 446 kts 57°
2026-04-25 17:25 49.53959 -59.70535 30830 ft 445 kts 57°
2026-04-25 17:26 49.57041 -59.62287 30828 ft 444 kts 57°
2026-04-25 17:26 49.60123 -59.54090 30818 ft 444 kts 57°
2026-04-25 17:27 49.63200 -59.45902 30810 ft 444 kts 56°
2026-04-25 17:27 49.65257 -59.40457 30803 ft 444 kts 57°
2026-04-25 17:28 49.69240 -59.29412 30806 ft 443 kts 59°
2026-04-25 17:28 49.72177 -59.21024 30799 ft 442 kts 59°
2026-04-25 17:29 49.75096 -59.12735 30791 ft 442 kts 59°
2026-04-25 17:29 49.78033 -59.04438 30781 ft 441 kts 59°
2026-04-25 17:30 49.80970 -58.96151 30774 ft 440 kts 59°
2026-04-25 17:30 49.83921 -58.87854 30776 ft 441 kts 59°
2026-04-25 17:31 49.86875 -58.79551 30776 ft 440 kts 59°
2026-04-25 17:31 49.89813 -58.71315 30784 ft 437 kts 59°
2026-04-25 17:32 49.92764 -58.63049 30778 ft 437 kts 58°
2026-04-25 17:32 49.95714 -58.54808 30752 ft 439 kts 58°
2026-04-25 17:33 49.98677 -58.46555 30766 ft 440 kts 58°
2026-04-25 17:33 50.01651 -58.38300 30749 ft 438 kts 58°
2026-04-25 17:34 50.04628 -58.30035 30735 ft 437 kts 59°
2026-04-25 17:34 50.07567 -58.21797 30748 ft 438 kts 60°
2026-04-25 17:35 50.10386 -58.13403 30744 ft 438 kts 60°
2026-04-25 17:35 50.13204 -58.04980 30748 ft 439 kts 60°
2026-04-25 17:36 50.16026 -57.96613 30730 ft 439 kts 60°
2026-04-25 17:36 50.18868 -57.88222 30725 ft 439 kts 60°
2026-04-25 17:37 50.21728 -57.79794 30725 ft 439 kts 60°
2026-04-25 17:37 50.24585 -57.71392 30717 ft 441 kts 59°
2026-04-25 17:38 50.26499 -57.65772 30716 ft 441 kts 59°
2026-04-25 17:38 50.30344 -57.54497 30697 ft 442 kts 59°
2026-04-25 17:39 50.33248 -57.46003 30699 ft 443 kts 59°
2026-04-25 17:39 50.36138 -57.37569 30672 ft 442 kts 59°
2026-04-25 17:40 50.39056 -57.29082 30694 ft 442 kts 59°
2026-04-25 17:40 50.41984 -57.20594 30683 ft 444 kts 59°
2026-04-25 17:41 50.44906 -57.12136 30676 ft 445 kts 59°
2026-04-25 17:41 50.47765 -57.03516 30659 ft 445 kts 61°
2026-04-25 17:42 50.50532 -56.94841 30685 ft 445 kts 61°
2026-04-25 17:42 50.53304 -56.86184 30671 ft 444 kts 60°
2026-04-25 17:43 50.56091 -56.77543 30668 ft 445 kts 60°
2026-04-25 17:43 50.58901 -56.68861 30670 ft 446 kts 60°
2026-04-25 17:44 50.61729 -56.60147 30637 ft 447 kts 60°
2026-04-25 17:44 50.64551 -56.51457 30641 ft 448 kts 60°
2026-04-25 17:45 50.66433 -56.45674 30610 ft 446 kts 60°
2026-04-25 17:45 50.70201 -56.34127 30597 ft 447 kts 60°
2026-04-25 17:46 50.73051 -56.25408 30637 ft 449 kts 60°
2026-04-25 17:46 50.75907 -56.16700 30619 ft 447 kts 60°
2026-04-25 17:47 50.78772 -56.08001 30645 ft 446 kts 60°
2026-04-25 17:47 50.81640 -55.99300 30639 ft 447 kts 60°
2026-04-25 17:48 50.85857 -55.86133 30641 ft 450 kts 62°
2026-04-25 17:49 50.88554 -55.77267 30617 ft 449 kts 62°
2026-04-25 17:49 50.91262 -55.68386 30621 ft 450 kts 62°
2026-04-25 17:50 50.94008 -55.59450 30619 ft 451 kts 61°
2026-04-25 17:50 50.96763 -55.50518 30586 ft 452 kts 61°
2026-04-25 17:51 50.99513 -55.41633 30604 ft 453 kts 61°
2026-04-25 17:51 51.02307 -55.32616 30599 ft 454 kts 62°
2026-04-25 17:52 51.05088 -55.23664 30600 ft 455 kts 62°
2026-04-25 17:52 51.07892 -55.14655 30577 ft 456 kts 62°
2026-04-25 17:53 51.10716 -55.05597 30591 ft 457 kts 62°
2026-04-25 17:53 51.13542 -54.96568 30594 ft 459 kts 61°
2026-04-25 17:54 51.16406 -54.87458 30584 ft 458 kts 61°
2026-04-25 17:54 51.19252 -54.78414 30574 ft 459 kts 61°
2026-04-25 17:55 51.22038 -54.69326 30580 ft 460 kts 63°
2026-04-25 17:55 51.24738 -54.60086 30571 ft 459 kts 63°
2026-04-25 17:56 51.27441 -54.50882 30572 ft 459 kts 63°
2026-04-25 17:56 51.30164 -54.41681 30578 ft 460 kts 62°
2026-04-25 17:57 51.32920 -54.32410 30572 ft 462 kts 63°
2026-04-25 17:57 51.35681 -54.23154 30551 ft 462 kts 63°
2026-04-25 17:58 51.38438 -54.13926 30564 ft 464 kts 63°
2026-04-25 17:58 51.41238 -54.04606 30541 ft 463 kts 63°
2026-04-25 17:59 51.44021 -53.95343 30548 ft 463 kts 63°
2026-04-25 17:59 51.47012 -53.86215 30559 ft 463 kts 60°
2026-04-25 18:00 51.49602 -53.76714 30573 ft 467 kts 71°
2026-04-25 18:00 51.51145 -53.66656 30561 ft 469 kts 76°
2026-04-25 18:01 51.52491 -53.56436 30555 ft 468 kts 76°
2026-04-25 18:01 51.53899 -53.46242 30552 ft 468 kts 75°
2026-04-25 18:02 51.55353 -53.36084 30551 ft 468 kts 75°
2026-04-25 18:02 51.56817 -53.25896 30559 ft 470 kts 76°
2026-04-25 18:03 51.58293 -53.15665 30542 ft 471 kts 76°
2026-04-25 18:03 51.59767 -53.05475 30541 ft 472 kts 76°
2026-04-25 18:04 51.61267 -52.95182 30535 ft 473 kts 75°
2026-04-25 18:04 51.62770 -52.84938 30542 ft 473 kts 75°
2026-04-25 18:05 51.64281 -52.74686 30534 ft 471 kts 75°
2026-04-25 18:05 51.65794 -52.64515 30555 ft 471 kts 75°
2026-04-25 18:06 51.67320 -52.54295 30536 ft 470 kts 75°
2026-04-25 18:06 51.68863 -52.44050 30529 ft 470 kts 75°
2026-04-25 18:07 51.70249 -52.33760 30462 ft 469 kts 77°
2026-04-25 18:07 51.71518 -52.23520 30469 ft 467 kts 77°
2026-04-25 18:08 51.72826 -52.13282 30483 ft 466 kts 77°
2026-04-25 18:08 51.74156 -52.03087 30490 ft 466 kts 77°
2026-04-25 18:09 51.75496 -51.92860 30488 ft 467 kts 77°
2026-04-25 18:09 51.76850 -51.82594 30481 ft 466 kts 76°
2026-04-25 18:10 51.78203 -51.72383 30480 ft 465 kts 76°
2026-04-25 18:10 51.79557 -51.62231 30475 ft 462 kts 76°
2026-04-25 18:11 51.80908 -51.52172 30474 ft 461 kts 76°
2026-04-25 18:11 51.82277 -51.42046 30473 ft 461 kts 76°
2026-04-25 18:12 51.83652 -51.31969 30477 ft 461 kts 76°
2026-04-25 18:12 51.85039 -51.21874 30468 ft 459 kts 76°
2026-04-25 18:13 51.86417 -51.11864 30457 ft 457 kts 76°
2026-04-25 18:13 51.87640 -51.01787 30454 ft 456 kts 78°
2026-04-25 18:14 51.89381 -50.86691 30446 ft 455 kts 77°
2026-04-25 18:14 51.90570 -50.76698 30443 ft 455 kts 77°
2026-04-25 18:15 51.91776 -50.66651 30450 ft 454 kts 77°
2026-04-25 18:15 51.92986 -50.56629 30484 ft 453 kts 76°
2026-04-25 18:16 51.94201 -50.46654 30473 ft 452 kts 76°
2026-04-25 18:17 51.96032 -50.31717 30454 ft 451 kts 77°
2026-04-25 18:17 51.97261 -50.21814 30441 ft 450 kts 76°
2026-04-25 18:18 51.98499 -50.11901 30416 ft 450 kts 76°
2026-04-25 18:18 51.99744 -50.02015 30418 ft 449 kts 76°
2026-04-25 18:19 52.01047 -49.92138 30410 ft 448 kts 75°
2026-04-25 18:19 52.02387 -49.82267 30408 ft 446 kts 75°
2026-04-25 18:20 52.03697 -49.72507 30404 ft 445 kts 75°
2026-04-25 18:20 52.05021 -49.62667 30403 ft 446 kts 75°
2026-04-25 18:21 52.06343 -49.52918 30407 ft 445 kts 75°
2026-04-25 18:21 52.07678 -49.43135 30411 ft 444 kts 75°
2026-04-25 18:22 52.09016 -49.33366 30411 ft 443 kts 76°
2026-04-25 18:22 52.10357 -49.23642 30411 ft 443 kts 76°
2026-04-25 18:23 52.11712 -49.13886 30409 ft 443 kts 76°
2026-04-25 18:23 52.13070 -49.04163 30391 ft 442 kts 75°
2026-04-25 18:24 52.14439 -48.94414 30383 ft 441 kts 75°
2026-04-25 18:24 52.15816 -48.84731 30365 ft 441 kts 75°
2026-04-25 18:25 52.17199 -48.75010 30372 ft 441 kts 75°
2026-04-25 18:25 52.18579 -48.65348 30375 ft 441 kts 76°
2026-04-25 18:26 52.19799 -48.55540 30388 ft 441 kts 77°
2026-04-25 18:26 52.20966 -48.45707 30369 ft 442 kts 77°
2026-04-25 18:27 52.22154 -48.35918 30358 ft 442 kts 77°
2026-04-25 18:27 52.23356 -48.26152 30373 ft 441 kts 77°
2026-04-25 18:28 52.24574 -48.16355 30356 ft 441 kts 77°
2026-04-25 18:28 52.25789 -48.06620 30365 ft 441 kts 77°
2026-04-25 18:29 52.27628 -47.91943 30408 ft 441 kts 77°
2026-04-25 18:30 52.30103 -47.72438 30393 ft 441 kts 77°
2026-04-25 18:30 52.31347 -47.62746 30377 ft 442 kts 77°
2026-04-25 18:31 52.32617 -47.52941 30381 ft 441 kts 77°
2026-04-25 18:31 52.33892 -47.43187 30378 ft 442 kts 77°
2026-04-25 18:32 52.35175 -47.33353 30385 ft 444 kts 78°
2026-04-25 18:32 52.36313 -47.23417 30377 ft 444 kts 80°
2026-04-25 18:33 52.37365 -47.13543 30426 ft 443 kts 79°
2026-04-25 18:33 52.38452 -47.03593 30382 ft 443 kts 79°
2026-04-25 18:34 52.39549 -46.93689 30416 ft 444 kts 79°
2026-04-25 18:34 52.40662 -46.83734 30411 ft 445 kts 79°
2026-04-25 18:35 52.41778 -46.73819 30421 ft 446 kts 79°
2026-04-25 18:35 52.42903 -46.63861 30444 ft 446 kts 79°
2026-04-25 18:36 52.44040 -46.53882 30430 ft 445 kts 79°
2026-04-25 18:36 52.45188 -46.43870 30450 ft 446 kts 79°
2026-04-25 18:37 52.46342 -46.33906 30453 ft 446 kts 79°
2026-04-25 18:37 52.47502 -46.23960 30443 ft 447 kts 79°
2026-04-25 18:38 52.48684 -46.13937 30472 ft 447 kts 79°
2026-04-25 18:38 52.49867 -46.03977 30455 ft 448 kts 79°
2026-04-25 18:39 52.50991 -45.93961 30454 ft 447 kts 81°
2026-04-25 18:39 52.51952 -45.83891 30446 ft 448 kts 82°
2026-04-25 18:40 52.52920 -45.73785 30443 ft 448 kts 81°
2026-04-25 18:40 52.53907 -45.63750 30456 ft 449 kts 81°
2026-04-25 18:41 52.54921 -45.53572 30454 ft 450 kts 81°
2026-04-25 18:41 52.55932 -45.43465 30475 ft 451 kts 81°
2026-04-25 18:42 52.56612 -45.36709 30461 ft 450 kts 81°
2026-04-25 18:42 52.57986 -45.23145 30467 ft 453 kts 82°
2026-04-25 18:43 52.59021 -45.13040 30496 ft 452 kts 82°
2026-04-25 18:43 52.60074 -45.02855 30477 ft 451 kts 82°
2026-04-25 18:44 52.61129 -44.92719 30460 ft 453 kts 82°
2026-04-25 18:44 52.62210 -44.82471 30496 ft 456 kts 82°
2026-04-25 18:45 52.63308 -44.72181 30493 ft 456 kts 82°
2026-04-25 18:45 52.64381 -44.61923 30510 ft 455 kts 83°
2026-04-25 18:46 52.65263 -44.51645 30494 ft 457 kts 84°
2026-04-25 18:46 52.66120 -44.41330 30480 ft 458 kts 84°
2026-04-25 18:47 52.67010 -44.30959 30511 ft 459 kts 84°
2026-04-25 18:47 52.67916 -44.20596 30511 ft 459 kts 84°
2026-04-25 18:48 52.68832 -44.10212 30509 ft 460 kts 84°
2026-04-25 18:48 52.69762 -43.99735 30517 ft 462 kts 84°
2026-04-25 18:49 52.70701 -43.89250 30513 ft 464 kts 84°
2026-04-25 18:49 52.71643 -43.78816 30536 ft 463 kts 84°
2026-04-25 18:50 52.72603 -43.68303 30522 ft 464 kts 84°
2026-04-25 18:50 52.73571 -43.57791 30512 ft 466 kts 84°
2026-04-25 18:51 52.74225 -43.50744 30533 ft 467 kts 84°
2026-04-25 18:51 52.75562 -43.36628 30525 ft 469 kts 84°
2026-04-25 18:52 52.76544 -43.26021 30523 ft 470 kts 86°
2026-04-25 18:52 52.77332 -43.15394 30538 ft 469 kts 86°
2026-04-25 18:53 52.78092 -43.04673 30555 ft 469 kts 86°
2026-04-25 18:53 52.78876 -42.94015 30527 ft 471 kts 86°
2026-04-25 18:54 52.80095 -42.77907 30538 ft 473 kts 86°
2026-04-25 18:55 52.80920 -42.67171 30551 ft 474 kts 86°
2026-04-25 18:55 52.81761 -42.56359 30540 ft 474 kts 86°
2026-04-25 18:56 52.82601 -42.45622 30546 ft 474 kts 86°
2026-04-25 18:56 52.83453 -42.34851 30546 ft 476 kts 87°
2026-04-25 18:57 52.84326 -42.23950 30558 ft 477 kts 87°
2026-04-25 18:57 52.85209 -42.13064 30562 ft 479 kts 87°
2026-04-25 18:58 52.86106 -42.02210 30609 ft 479 kts 87°
2026-04-25 18:58 52.87396 -41.85831 30611 ft 477 kts 89°
2026-04-25 18:59 52.88688 -41.64062 30616 ft 478 kts 89°
2026-04-25 19:00 52.89716 -41.47669 30614 ft 479 kts 89°
2026-04-25 19:01 52.90776 -41.31303 30646 ft 479 kts 90°
2026-04-25 19:01 52.91495 -41.20344 30633 ft 479 kts 90°
2026-04-25 19:02 52.92589 -41.03920 30656 ft 480 kts 90°
2026-04-25 19:03 52.93458 -40.91105 30644 ft 480 kts 90°
2026-04-25 19:03 52.94468 -40.76520 30655 ft 479 kts 89°
2026-04-25 19:04 52.95628 -40.60127 30654 ft 480 kts 89°
2026-04-25 19:05 52.96957 -40.38135 30657 ft 480 kts 90°
2026-04-25 19:06 52.97578 -40.27169 30657 ft 479 kts 90°
2026-04-25 19:06 52.98552 -40.10702 30660 ft 480 kts 90°
2026-04-25 19:07 53.00119 -39.94187 30653 ft 482 kts 88°
2026-04-25 19:08 53.00880 -39.77697 30668 ft 478 kts 93°
2026-04-25 19:09 53.01449 -39.57463 30661 ft 482 kts 92°
2026-04-25 19:10 53.02061 -39.38908 30655 ft 484 kts 92°
2026-04-25 19:10 53.02441 -39.27827 30658 ft 484 kts 92°
2026-04-25 19:11 53.02827 -39.16708 30669 ft 483 kts 92°
2026-04-25 19:11 53.03222 -39.05559 30676 ft 485 kts 92°
2026-04-25 19:12 53.03630 -38.94380 30694 ft 487 kts 91°
2026-04-25 19:12 53.04053 -38.83172 30700 ft 487 kts 91°
2026-04-25 19:13 53.04491 -38.71965 30710 ft 487 kts 91°
2026-04-25 19:13 53.04933 -38.60794 30704 ft 488 kts 91°
2026-04-25 19:14 53.05391 -38.49568 30708 ft 488 kts 91°
2026-04-25 19:14 53.05636 -38.38315 30713 ft 488 kts 94°
2026-04-25 19:15 53.05816 -38.27032 30711 ft 489 kts 94°
2026-04-25 19:15 53.06034 -38.15764 30708 ft 488 kts 94°
2026-04-25 19:16 53.06275 -38.04504 30723 ft 490 kts 93°
2026-04-25 19:16 53.06523 -37.93207 30704 ft 491 kts 93°
2026-04-25 19:17 53.06783 -37.81928 30695 ft 493 kts 93°
2026-04-25 19:17 53.07052 -37.70584 30710 ft 493 kts 93°
2026-04-25 19:18 53.07332 -37.59184 30694 ft 493 kts 92°
2026-04-25 19:18 53.07621 -37.47815 30715 ft 495 kts 92°
2026-04-25 19:19 53.07925 -37.36428 30719 ft 497 kts 92°
2026-04-25 19:19 53.08255 -37.24948 30728 ft 498 kts 93°
2026-04-25 19:20 53.08577 -37.13522 30727 ft 498 kts 92°
2026-04-25 19:20 53.08752 -37.01965 30736 ft 498 kts 95°
2026-04-25 19:21 53.08800 -36.90532 30742 ft 498 kts 94°
2026-04-25 19:21 53.08928 -36.73159 30738 ft 500 kts 94°
2026-04-25 19:22 53.09043 -36.61682 30739 ft 500 kts 94°
2026-04-25 19:23 53.09237 -36.44326 30743 ft 501 kts 93°
2026-04-25 19:23 53.09452 -36.26958 30748 ft 501 kts 94°
2026-04-25 19:24 53.09610 -36.15425 30756 ft 502 kts 94°
2026-04-25 19:25 53.09961 -35.92229 30772 ft 504 kts 94°
2026-04-25 19:25 53.10158 -35.80627 30763 ft 504 kts 93°
2026-04-25 19:26 53.10319 -35.68969 30784 ft 503 kts 95°
2026-04-25 19:26 53.10258 -35.57358 30794 ft 502 kts 95°
2026-04-25 19:27 53.10201 -35.49618 30781 ft 502 kts 95°
2026-04-25 19:27 53.10137 -35.34223 30790 ft 501 kts 96°
2026-04-25 19:28 53.10116 -35.22647 30792 ft 501 kts 95°
2026-04-25 19:28 53.10109 -35.11042 30799 ft 502 kts 95°
2026-04-25 19:29 53.10111 -34.99487 30799 ft 502 kts 95°
2026-04-25 19:29 53.10123 -34.87856 30800 ft 503 kts 95°
2026-04-25 19:30 53.10140 -34.76242 30803 ft 505 kts 95°
2026-04-25 19:30 53.10181 -34.64625 30806 ft 506 kts 95°
2026-04-25 19:31 53.10231 -34.52918 30811 ft 506 kts 94°
2026-04-25 19:31 53.10295 -34.41206 30819 ft 509 kts 94°
2026-04-25 19:32 53.10306 -34.29462 30825 ft 507 kts 96°
2026-04-25 19:32 53.10179 -34.21725 30807 ft 506 kts 97°
2026-04-25 19:33 53.09884 -34.06121 30832 ft 507 kts 97°
2026-04-25 19:33 53.09712 -33.94420 30843 ft 510 kts 96°
2026-04-25 19:34 53.09560 -33.82652 30855 ft 511 kts 96°
2026-04-25 19:34 53.09415 -33.70748 30855 ft 512 kts 96°
2026-04-25 19:35 53.09279 -33.58986 30856 ft 513 kts 95°
2026-04-25 19:35 53.09155 -33.47134 30852 ft 512 kts 95°
2026-04-25 19:36 53.09041 -33.35281 30857 ft 513 kts 95°
2026-04-25 19:36 53.08946 -33.23391 30860 ft 514 kts 95°
2026-04-25 19:37 53.08857 -33.11469 30861 ft 516 kts 95°
2026-04-25 19:37 53.08796 -32.99580 30860 ft 517 kts 95°
2026-04-25 19:38 53.08596 -32.87653 30864 ft 516 kts 97°
2026-04-25 19:38 53.08225 -32.75752 30856 ft 516 kts 97°
2026-04-25 19:39 53.07879 -32.63763 30881 ft 518 kts 96°
2026-04-25 19:39 53.07583 -32.51798 30873 ft 519 kts 96°
2026-04-25 19:40 53.07285 -32.39764 30869 ft 519 kts 96°
2026-04-25 19:40 53.07001 -32.27763 30880 ft 519 kts 96°
2026-04-25 19:41 53.06736 -32.15848 30877 ft 521 kts 96°
2026-04-25 19:41 53.06558 -32.07829 30891 ft 522 kts 96°
2026-04-25 19:42 53.06223 -31.91805 30896 ft 523 kts 95°
2026-04-25 19:42 53.05994 -31.79719 30914 ft 523 kts 95°
2026-04-25 19:43 53.05769 -31.67674 30912 ft 523 kts 95°
2026-04-25 19:43 53.05555 -31.55558 30925 ft 522 kts 96°
2026-04-25 19:44 53.05091 -31.43564 30906 ft 521 kts 97°
2026-04-25 19:44 53.04578 -31.31632 30919 ft 522 kts 97°
2026-04-25 19:45 53.04111 -31.19622 30935 ft 522 kts 97°
2026-04-25 19:45 53.03680 -31.07596 30930 ft 524 kts 97°
2026-04-25 19:46 53.03254 -30.95537 30937 ft 524 kts 96°
2026-04-25 19:46 53.02837 -30.83563 30934 ft 524 kts 96°
2026-04-25 19:47 53.02440 -30.71858 30925 ft 524 kts 96°
2026-04-25 19:47 53.02039 -30.59717 30908 ft 524 kts 96°
2026-04-25 19:48 53.01661 -30.47673 30912 ft 523 kts 95°
2026-04-25 19:48 53.01297 -30.35620 30915 ft 523 kts 95°
2026-04-25 19:49 53.01060 -30.27638 30907 ft 524 kts 95°
2026-04-25 19:49 53.00503 -30.11603 30923 ft 524 kts 97°
2026-04-25 19:50 52.99888 -29.93459 30911 ft 525 kts 90°
2026-04-25 19:51 53.00343 -29.81457 30923 ft 526 kts 88°
2026-04-25 19:51 53.00802 -29.69299 30947 ft 527 kts 88°
2026-04-25 19:52 53.01180 -29.57192 30946 ft 527 kts 88°
2026-04-25 19:52 53.01566 -29.45014 30946 ft 528 kts 88°
2026-04-25 19:53 53.01970 -29.32924 30942 ft 529 kts 88°
2026-04-25 19:53 53.02391 -29.20779 30948 ft 529 kts 88°
2026-04-25 19:54 53.02828 -29.08622 30959 ft 529 kts 88°
2026-04-25 19:54 53.03274 -28.96543 30951 ft 529 kts 88°
2026-04-25 19:55 53.03735 -28.84361 30953 ft 530 kts 88°
2026-04-25 19:55 53.04209 -28.72157 30957 ft 531 kts 87°
2026-04-25 19:56 53.04707 -28.59976 30956 ft 532 kts 86°
2026-04-25 19:56 53.05157 -28.47737 30945 ft 532 kts 88°
2026-04-25 19:57 53.05367 -28.35523 30950 ft 532 kts 89°
2026-04-25 19:57 53.05578 -28.23268 30962 ft 533 kts 89°
2026-04-25 19:58 53.05841 -28.10966 30957 ft 533 kts 89°
2026-04-25 19:58 53.06124 -27.98700 30966 ft 533 kts 88°
2026-04-25 19:59 53.06411 -27.86441 30968 ft 534 kts 88°
2026-04-25 19:59 53.06707 -27.74141 30970 ft 535 kts 88°
2026-04-25 20:00 53.07013 -27.61833 30967 ft 535 kts 88°
2026-04-25 20:00 53.07335 -27.49533 30973 ft 536 kts 87°
2026-04-25 20:01 53.07853 -27.31000 30979 ft 536 kts 88°
2026-04-25 20:01 53.08221 -27.18606 30982 ft 536 kts 87°
2026-04-25 20:02 53.08470 -27.06245 30977 ft 536 kts 90°
2026-04-25 20:02 53.08519 -26.93906 30976 ft 536 kts 90°
2026-04-25 20:03 53.08595 -26.81584 30984 ft 536 kts 89°
2026-04-25 20:03 53.08718 -26.69102 30991 ft 536 kts 89°
2026-04-25 20:04 53.08861 -26.56734 30982 ft 537 kts 89°
2026-04-25 20:04 53.09014 -26.44336 30990 ft 537 kts 88°
2026-04-25 20:05 53.09176 -26.31899 30987 ft 538 kts 89°
2026-04-25 20:05 53.09352 -26.19465 30987 ft 539 kts 88°
2026-04-25 20:06 53.09538 -26.07063 30981 ft 540 kts 88°
2026-04-25 20:06 53.09747 -25.94585 30913 ft 540 kts 88°
2026-04-25 20:07 53.09962 -25.82137 30949 ft 540 kts 88°
2026-04-25 20:07 53.10114 -25.69701 30975 ft 540 kts 89°
2026-04-25 20:08 53.10037 -25.57270 30981 ft 540 kts 90°
2026-04-25 20:08 53.09959 -25.44796 30983 ft 540 kts 89°
2026-04-25 20:09 53.09929 -25.32307 30985 ft 539 kts 90°
2026-04-25 20:09 53.09925 -25.19889 30983 ft 540 kts 89°
2026-04-25 20:10 53.09932 -25.07449 30986 ft 540 kts 89°
2026-04-25 20:10 53.09946 -24.94984 30987 ft 540 kts 89°
2026-04-25 20:11 53.09972 -24.82567 30980 ft 540 kts 89°
2026-04-25 20:11 53.10017 -24.70151 30985 ft 539 kts 88°
2026-04-25 20:12 53.10077 -24.57711 30983 ft 539 kts 88°
2026-04-25 20:12 53.10124 -24.49438 30983 ft 539 kts 88°
2026-04-25 20:13 53.10186 -24.32798 30987 ft 540 kts 90°
2026-04-25 20:13 53.09981 -24.20389 30988 ft 540 kts 91°
2026-04-25 20:14 53.09750 -24.07870 30991 ft 539 kts 91°
2026-04-25 20:14 53.09575 -23.95419 30994 ft 540 kts 90°
2026-04-25 20:15 53.09426 -23.83038 30988 ft 540 kts 90°
2026-04-25 20:15 53.09285 -23.70528 30990 ft 540 kts 90°
2026-04-25 20:16 53.09154 -23.58108 30988 ft 540 kts 90°
2026-04-25 20:16 53.09032 -23.45696 30993 ft 539 kts 90°
2026-04-25 20:17 53.08924 -23.33273 30993 ft 539 kts 90°
2026-04-25 20:17 53.08840 -23.20830 30994 ft 538 kts 90°
2026-04-25 20:18 53.08765 -23.08387 30996 ft 538 kts 90°
2026-04-25 20:18 53.08679 -22.95997 31000 ft 539 kts 91°
2026-04-25 20:19 53.08353 -22.83629 31008 ft 539 kts 92°
2026-04-25 20:19 53.07973 -22.71226 31013 ft 538 kts 92°
2026-04-25 20:20 53.07649 -22.58798 31020 ft 537 kts 91°
2026-04-25 20:20 53.07357 -22.46500 31022 ft 536 kts 91°
2026-04-25 20:21 53.07070 -22.34097 31025 ft 536 kts 92°
2026-04-25 20:21 53.06797 -22.21795 31018 ft 536 kts 92°
2026-04-25 20:22 53.06617 -22.13543 31023 ft 536 kts 92°
2026-04-25 20:22 53.06278 -21.97081 31024 ft 534 kts 91°
2026-04-25 20:23 53.06045 -21.84816 31023 ft 534 kts 91°
2026-04-25 20:23 53.05832 -21.72545 31018 ft 534 kts 91°
2026-04-25 20:24 53.05611 -21.60196 31023 ft 534 kts 91°
2026-04-25 20:24 53.05188 -21.47909 31029 ft 534 kts 94°
2026-04-25 20:25 53.04669 -21.35676 31032 ft 534 kts 93°
2026-04-25 20:25 53.04200 -21.23400 30990 ft 533 kts 93°
2026-04-25 20:26 53.03775 -21.11219 31006 ft 532 kts 93°
2026-04-25 20:26 53.03347 -20.98966 31026 ft 530 kts 93°
2026-04-25 20:27 53.02927 -20.86815 31031 ft 531 kts 93°
2026-04-25 20:27 53.02517 -20.74544 31035 ft 531 kts 93°
2026-04-25 20:28 53.02125 -20.62381 31032 ft 530 kts 93°
2026-04-25 20:28 53.01743 -20.50203 31030 ft 528 kts 93°
2026-04-25 20:29 53.01382 -20.38129 31034 ft 527 kts 93°
2026-04-25 20:29 53.01038 -20.26018 31033 ft 526 kts 94°
2026-04-25 20:30 53.00589 -20.13929 31037 ft 524 kts 96°
2026-04-25 20:30 53.00061 -20.01879 31041 ft 523 kts 95°
2026-04-25 20:31 52.99923 -19.89916 31045 ft 522 kts 89°
2026-04-25 20:31 53.00188 -19.77895 31045 ft 521 kts 89°
2026-04-25 20:32 53.00355 -19.65979 31055 ft 519 kts 90°
2026-04-25 20:32 53.00467 -19.53978 31057 ft 519 kts 90°
2026-04-25 20:33 53.00596 -19.42039 31062 ft 518 kts 90°
2026-04-25 20:33 53.00724 -19.32113 31064 ft 518 kts 90°
2026-04-25 20:34 53.00927 -19.18216 31075 ft 517 kts 90°
2026-04-25 20:34 53.01113 -19.06313 31085 ft 517 kts 90°
2026-04-25 20:35 53.01308 -18.94455 31085 ft 516 kts 90°
2026-04-25 20:35 53.01516 -18.82627 31085 ft 516 kts 90°
2026-04-25 20:36 53.01736 -18.70777 31083 ft 515 kts 89°
2026-04-25 20:36 53.01979 -18.58941 31085 ft 514 kts 89°
2026-04-25 20:37 53.02108 -18.47116 31081 ft 513 kts 91°
2026-04-25 20:37 53.02055 -18.35230 31085 ft 514 kts 91°
2026-04-25 20:38 53.02021 -18.23436 31079 ft 514 kts 92°
2026-04-25 20:38 53.02025 -18.11653 31085 ft 514 kts 92°
2026-04-25 20:39 53.02049 -17.99799 31081 ft 513 kts 92°
2026-04-25 20:39 53.02069 -17.91905 31092 ft 514 kts 91°
2026-04-25 20:40 53.02121 -17.76161 31102 ft 514 kts 91°
2026-04-25 20:40 53.02173 -17.64350 31114 ft 513 kts 91°
2026-04-25 20:41 53.02237 -17.52537 31114 ft 513 kts 91°
2026-04-25 20:41 53.02321 -17.40725 31117 ft 512 kts 91°
2026-04-25 20:42 53.02412 -17.28943 31124 ft 511 kts 91°
2026-04-25 20:42 53.02517 -17.17148 31119 ft 510 kts 91°
2026-04-25 20:43 53.02432 -17.05454 31126 ft 510 kts 94°
2026-04-25 20:43 53.02241 -16.93725 31115 ft 511 kts 94°
2026-04-25 20:44 53.02084 -16.81925 31100 ft 510 kts 93°
2026-04-25 20:44 53.01960 -16.70135 31098 ft 511 kts 93°
2026-04-25 20:45 53.01848 -16.58441 31101 ft 511 kts 93°
2026-04-25 20:45 53.01743 -16.46563 31096 ft 511 kts 92°
2026-04-25 20:46 53.01650 -16.34846 31098 ft 511 kts 94°
2026-04-25 20:46 53.01566 -16.23080 31102 ft 511 kts 93°
2026-04-25 20:47 53.01496 -16.11288 31100 ft 511 kts 93°
2026-04-25 20:47 53.01445 -15.99482 31103 ft 512 kts 93°
2026-04-25 20:48 53.01405 -15.87696 31111 ft 512 kts 93°
2026-04-25 20:48 53.01356 -15.75913 31111 ft 512 kts 94°
2026-04-25 20:49 53.01115 -15.64168 31115 ft 512 kts 95°
2026-04-25 20:49 53.00846 -15.52388 31118 ft 512 kts 94°
2026-04-25 20:50 53.00641 -15.40553 31121 ft 512 kts 94°
2026-04-25 20:50 53.00436 -15.28820 31129 ft 511 kts 95°
2026-04-25 20:51 53.00247 -15.17035 31124 ft 511 kts 95°
2026-04-25 20:51 53.00077 -15.05244 31129 ft 510 kts 95°
2026-04-25 20:52 52.99942 -14.95464 31127 ft 511 kts 94°
2026-04-25 20:52 52.99908 -14.81725 31130 ft 513 kts 93°
2026-04-25 20:53 52.99882 -14.69925 31129 ft 513 kts 93°
2026-04-25 20:53 52.99865 -14.58074 31135 ft 514 kts 93°
2026-04-25 20:54 52.99862 -14.46254 31126 ft 514 kts 93°
2026-04-25 20:54 52.99870 -14.34497 31132 ft 513 kts 93°
2026-04-25 20:55 52.99904 -14.22682 31126 ft 513 kts 93°
2026-04-25 20:55 52.99937 -14.10824 31119 ft 514 kts 93°
2026-04-25 20:56 52.99768 -13.99026 31130 ft 512 kts 97°
2026-04-25 20:56 52.98980 -13.87325 31135 ft 511 kts 102°
2026-04-25 20:57 52.97842 -13.75707 31138 ft 511 kts 103°
2026-04-25 20:57 52.96705 -13.64160 31143 ft 512 kts 102°
2026-04-25 20:58 52.95614 -13.52471 31144 ft 512 kts 102°
2026-04-25 20:58 52.94537 -13.40835 31151 ft 512 kts 102°
2026-04-25 20:59 52.93471 -13.29224 31148 ft 512 kts 102°
2026-04-25 20:59 52.92413 -13.17607 31155 ft 513 kts 102°
2026-04-25 21:00 52.91711 -13.09845 31150 ft 513 kts 102°
2026-04-25 21:01 52.89799 -12.88417 31168 ft 515 kts 102°
2026-04-25 21:01 52.88776 -12.76707 31177 ft 515 kts 102°
2026-04-25 21:02 52.87763 -12.65003 31171 ft 516 kts 101°
2026-04-25 21:02 52.86760 -12.53261 31173 ft 516 kts 101°
2026-04-25 21:03 52.85599 -12.41668 31176 ft 515 kts 104°
2026-04-25 21:03 52.84298 -12.29972 31181 ft 516 kts 104°
2026-04-25 21:04 52.83047 -12.18374 31188 ft 517 kts 104°
2026-04-25 21:04 52.81817 -12.06662 31193 ft 517 kts 104°
2026-04-25 21:05 52.80599 -11.94967 31193 ft 518 kts 103°
2026-04-25 21:05 52.79388 -11.83273 31194 ft 519 kts 103°
2026-04-25 21:06 52.78185 -11.71551 31200 ft 519 kts 103°
2026-04-25 21:06 52.76993 -11.59833 31202 ft 520 kts 103°
2026-04-25 21:07 52.75812 -11.48070 31199 ft 520 kts 102°
2026-04-25 21:07 52.74644 -11.36257 31201 ft 520 kts 102°
2026-04-25 21:08 52.73494 -11.24565 31200 ft 520 kts 103°
2026-04-25 21:08 52.72321 -11.12791 31195 ft 521 kts 104°
2026-04-25 21:09 52.70193 -10.95291 31199 ft 522 kts 105°
2026-04-25 21:09 52.68773 -10.83547 31198 ft 522 kts 104°
2026-04-25 21:10 52.67401 -10.71867 31195 ft 521 kts 104°
2026-04-25 21:10 52.66046 -10.60183 31198 ft 521 kts 104°
2026-04-25 21:11 52.64700 -10.48516 31200 ft 522 kts 103°
2026-04-25 21:11 52.63361 -10.36830 31200 ft 523 kts 103°
2026-04-25 21:12 52.62028 -10.25091 31194 ft 523 kts 104°
2026-04-25 21:12 52.60925 -10.15299 31205 ft 524 kts 104°
2026-04-25 21:13 52.59391 -10.01525 31197 ft 525 kts 103°
2026-04-25 21:13 52.58099 -9.89771 31196 ft 525 kts 103°
2026-04-25 21:14 52.56768 -9.77954 31198 ft 525 kts 104°
2026-04-25 21:14 52.55229 -9.66307 31199 ft 524 kts 105°
2026-04-25 21:15 52.53664 -9.54688 31199 ft 523 kts 105°
2026-04-25 21:15 52.52137 -9.43047 31198 ft 523 kts 104°
2026-04-25 21:16 52.50634 -9.31397 31194 ft 524 kts 105°
2026-04-25 21:16 52.49131 -9.19668 31192 ft 524 kts 105°
2026-04-25 21:17 52.47648 -9.08009 31192 ft 524 kts 104°
2026-04-25 21:17 52.46180 -8.96389 31193 ft 524 kts 104°
2026-04-25 21:18 52.44718 -8.84732 31198 ft 525 kts 104°
2026-04-25 21:18 52.43276 -8.73059 31199 ft 525 kts 104°
2026-04-25 21:19 52.41832 -8.61340 31198 ft 525 kts 103°
2026-04-25 21:19 52.40419 -8.49648 31201 ft 523 kts 103°
2026-04-25 21:20 52.39417 -8.41978 31208 ft 521 kts 105°
2026-04-25 21:20 52.37161 -8.26665 31204 ft 520 kts 106°
2026-04-25 21:21 52.35490 -8.15141 31203 ft 520 kts 105°
2026-04-25 21:21 52.33863 -8.03690 31203 ft 521 kts 105°
2026-04-25 21:22 52.32239 -7.92153 31196 ft 521 kts 105°
2026-04-25 21:22 52.30627 -7.80631 31190 ft 522 kts 105°
2026-04-25 21:23 52.29020 -7.69097 31191 ft 523 kts 104°
2026-04-25 21:23 52.27417 -7.57500 31199 ft 524 kts 104°
2026-04-25 21:24 52.25836 -7.45926 31204 ft 524 kts 104°
2026-04-25 21:24 52.24262 -7.34337 31200 ft 525 kts 104°
2026-04-25 21:25 52.22705 -7.22767 31199 ft 525 kts 104°
2026-04-25 21:25 52.21110 -7.11164 31208 ft 525 kts 105°
2026-04-25 21:26 52.19324 -6.99703 31208 ft 526 kts 106°
2026-04-25 21:26 52.17515 -6.88151 31212 ft 526 kts 105°
2026-04-25 21:27 52.15758 -6.76642 31219 ft 525 kts 105°
2026-04-25 21:27 52.14019 -6.65117 31216 ft 524 kts 105°
2026-04-25 21:28 52.12294 -6.53632 31223 ft 524 kts 105°
2026-04-25 21:28 52.10582 -6.42127 31220 ft 524 kts 105°
2026-04-25 21:29 52.08873 -6.30601 31210 ft 523 kts 105°
2026-04-25 21:29 52.08037 -6.24875 31454 ft 525 kts 105°
2026-04-25 21:29 52.07194 -6.19131 32097 ft 526 kts 105°
2026-04-25 21:30 52.06351 -6.13351 32711 ft 525 kts 105°
2026-04-25 21:30 52.05618 -6.07597 33278 ft 525 kts 102°
2026-04-25 21:30 52.04970 -6.01722 33806 ft 525 kts 102°
2026-04-25 21:30 52.04481 -5.97874 34154 ft 524 kts 104°
2026-04-25 21:31 52.03288 -5.90310 34764 ft 523 kts 107°
2026-04-25 21:31 52.02277 -5.84643 35131 ft 523 kts 108°
2026-04-25 21:31 52.00207 -5.73382 35107 ft 517 kts 108°
2026-04-25 21:32 51.98237 -5.62205 35172 ft 518 kts 107°
2026-04-25 21:32 51.96269 -5.50961 35190 ft 520 kts 107°
2026-04-25 21:33 51.94324 -5.39778 35199 ft 519 kts 106°
2026-04-25 21:33 51.92386 -5.28535 35197 ft 519 kts 107°
2026-04-25 21:34 51.90747 -5.17122 35204 ft 520 kts 102°
2026-04-25 21:34 51.89413 -5.05686 35211 ft 520 kts 102°
2026-04-25 21:35 51.87991 -4.94213 35208 ft 520 kts 102°
2026-04-25 21:35 51.86546 -4.82821 35214 ft 520 kts 102°
2026-04-25 21:36 51.85099 -4.71348 35220 ft 520 kts 101°
2026-04-25 21:36 51.83685 -4.59955 35231 ft 520 kts 101°
2026-04-25 21:37 51.82513 -4.50433 35234 ft 518 kts 101°
2026-04-25 21:37 51.80889 -4.37133 35231 ft 518 kts 101°
2026-04-25 21:38 51.79516 -4.25790 35224 ft 517 kts 101°
2026-04-25 21:38 51.78151 -4.14386 35237 ft 516 kts 101°
2026-04-25 21:39 51.76811 -4.03067 35217 ft 517 kts 101°
2026-04-25 21:39 51.75483 -3.91758 35232 ft 516 kts 100°
2026-04-25 21:40 51.74078 -3.80368 35216 ft 516 kts 102°
2026-04-25 21:40 51.72564 -3.69161 35229 ft 515 kts 101°
2026-04-25 21:41 51.71206 -3.57854 35232 ft 514 kts 98°
2026-04-25 21:41 51.70361 -3.46463 35223 ft 514 kts 94°
2026-04-25 21:42 51.69685 -3.35046 35213 ft 514 kts 94°
2026-04-25 21:42 51.68942 -3.23580 35203 ft 514 kts 95°
2026-04-25 21:43 51.68181 -3.12105 35212 ft 514 kts 95°
2026-04-25 21:43 51.67436 -3.00681 35227 ft 514 kts 95°
2026-04-25 21:44 51.66713 -2.89267 35215 ft 513 kts 94°
2026-04-25 21:45 51.65657 -2.72186 35214 ft 512 kts 94°
2026-04-25 21:45 51.64971 -2.60859 35219 ft 511 kts 94°
2026-04-25 21:46 51.64305 -2.49539 35216 ft 511 kts 94°
2026-04-25 21:46 51.63625 -2.38192 35213 ft 510 kts 94°
2026-04-25 21:47 51.62791 -2.26891 35219 ft 510 kts 96°
2026-04-25 21:47 51.61943 -2.15632 35217 ft 508 kts 95°
2026-04-25 21:48 51.61149 -2.04332 35220 ft 508 kts 95°
2026-04-25 21:48 51.60345 -1.93094 35225 ft 509 kts 95°
2026-04-25 21:49 51.59575 -1.81831 35220 ft 508 kts 95°